N7AWM Weather Reports


time (UTC)temp
F
wind
direction
speed
knots
gust
knots
rain 1hr
in
rain 24hr
in
rain mn
in
humidity
%
barometer
mb
20260505164958 71 183 1.7 4.3 0.00 0.00 0.00 48 1007.3
20260505163558 70 176 0.9 3.5 0.00 0.00 0.00 48 1007.2
20260505162158 69 165 0.9 2.6 0.00 0.00 0.00 50 1007.1
20260505160758 68 169 1.7 2.6 0.00 0.00 0.00 51 1007.1
20260505152558 66 139 0.9 1.7 0.00 0.00 0.00 53 1006.9
20260505151158 66 94 0.9 2.6 0.00 0.00 0.00 52 1006.9
20260505140159 63 236 0.0 0.9 0.00 0.00 0.00 52 1006.2
20260505123759 62 169 0.0 2.6 0.00 0.00 0.00 49 1005.4
20260505122359 63 146 0.9 3.5 0.00 0.00 0.00 47 1005.2
20260505120959 65 169 0.9 2.6 0.00 0.00 0.00 43 1005.0
20260505115559 67 333 4.3 7.8 0.00 0.00 0.00 40 1004.7
20260505114159 68 349 7.0 10.4 0.00 0.00 0.00 39 1004.6
20260505112759 68 346 8.7 13.0 0.00 0.00 0.00 40 1004.6
20260505111400 68 353 9.6 14.8 0.00 0.00 0.00 39 1004.5
20260505101800 69 356 9.6 15.6 0.00 0.00 0.00 38 1004.0
20260505100400 70 350 10.4 13.9 0.00 0.00 0.00 38 1003.9
20260505095000 70 333 10.4 15.6 0.00 0.00 0.00 38 1003.8
20260505093600 71 342 11.3 16.5 0.00 0.00 0.00 37 1003.7
20260505092200 71 332 11.3 17.4 0.00 0.00 0.00 37 1003.7
20260505090800 71 336 11.3 18.2 0.00 0.00 0.00 37 1003.7
20260505085400 70 342 11.3 17.4 0.00 0.00 0.00 37 1003.7
20260505084000 70 340 10.4 17.4 0.00 0.00 0.00 37 1003.6
20260505082600 70 357 10.4 15.6 0.00 0.00 0.00 38 1003.7
20260505081200 71 321 11.3 17.4 0.00 0.00 0.00 38 1003.7
20260505075800 70 342 11.3 17.4 0.00 0.00 0.00 38 1003.6
20260505074401 69 334 10.4 16.5 0.00 0.00 0.00 39 1003.6
20260505073001 70 320 9.6 14.8 0.00 0.00 0.00 38 1003.4
20260505071601 70 348 12.2 18.2 0.00 0.00 0.00 38 1003.4
20260505070201 71 359 13.0 16.5 0.00 0.00 0.00 37 1003.3
20260505064801 70 49 13.9 18.2 0.00 0.00 0.00 38 1003.2
20260505063401 71 3 13.0 19.1 0.00 0.00 0.00 37 1003.1
20260505062001 71 0 12.2 18.2 0.00 0.00 0.00 36 1003.2
20260505060601 71 331 11.3 15.6 0.00 0.00 0.00 35 1003.1
20260505055201 71 17 10.4 13.9 0.00 0.00 0.00 35 1003.2
20260505053801 72 330 11.3 20.0 0.00 0.00 0.00 34 1003.2
20260505052401 71 349 10.4 15.6 0.00 0.00 0.00 34 1003.2
20260505051001 72 319 11.3 16.5 0.00 0.00 0.00 33 1003.1
20260505041402 72 333 9.6 12.2 0.00 0.00 0.00 31 1002.8
20260505040002 73 328 9.6 13.9 0.00 0.00 0.00 30 1002.6
20260505034602 72 341 8.7 13.0 0.00 0.00 0.00 31 1002.5
20260505033202 73 344 8.7 15.6 0.00 0.00 0.00 31 1002.4
20260505031802 73 351 7.8 10.4 0.00 0.00 0.00 31 1002.3
20260505030402 74 349 7.8 13.9 0.00 0.00 0.00 30 1002.2
20260505025002 75 355 9.6 12.2 0.00 0.00 0.00 29 1001.9
20260505023602 77 1 10.4 17.4 0.00 0.00 0.00 27 1001.9
20260505022202 78 344 13.0 20.0 0.00 0.00 0.00 25 1002.0
20260505020802 79 337 13.9 20.9 0.00 0.00 0.00 25 1001.9
20260505015402 80 347 10.4 20.0 0.00 0.00 0.00 24 1001.9
20260505014002 80 351 12.2 19.1 0.00 0.00 0.00 25 1001.8
20260505012602 80 327 12.2 18.2 0.00 0.00 0.00 24 1001.9
20260505011202 81 347 10.4 18.2 0.00 0.00 0.00 25 1002.0
20260505005802 80 349 3.5 9.6 0.00 0.00 0.00 27 1001.9
20260505004403 82 288 0.9 2.6 0.00 0.00 0.00 27 1001.8
20260505003003 84 206 0.9 0.0 0.00 0.00 0.00 26 1001.7
20260505001603 84 226 0.0 1.7 0.00 0.00 0.00 25 1001.8
20260505000204 83 77 0.9 0.9 0.00 0.00 0.00 25 1001.8
20260504234803 84 133 1.7 4.3 0.00 0.00 0.00 28 1001.7
20260504233403 84 188 3.5 5.2 0.00 0.00 0.00 27 1001.8
20260504232003 83 131 2.6 5.2 0.00 0.00 0.00 28 1001.9
20260504230603 83 200 2.6 7.0 0.00 0.00 0.00 27 1002.0
20260504225203 82 102 2.6 7.0 0.00 0.00 0.00 28 1002.2
20260504223803 83 140 3.5 6.1 0.00 0.00 0.00 28 1002.3
20260504222403 83 136 1.7 5.2 0.00 0.00 0.00 30 1002.5
20260504221003 82 159 4.3 8.7 0.00 0.00 0.00 30 1002.7
20260504215603 82 183 3.5 7.8 0.00 0.00 0.00 28 1002.9
20260504214203 81 105 3.5 7.8 0.00 0.00 0.00 30 1003.0
20260504212803 81 173 3.5 7.0 0.00 0.00 0.00 29 1003.2
20260504211403 81 115 3.5 5.2 0.00 0.00 0.00 29 1003.4
20260504210004 81 99 1.7 6.1 0.00 0.00 0.00 27 1003.6
20260504204604 80 86 2.6 5.2 0.00 0.00 0.00 29 1003.8
20260504203204 80 148 2.6 8.7 0.00 0.00 0.00 27 1003.9
20260504201804 80 91 2.6 6.1 0.00 0.00 0.00 27 1004.0
20260504200404 79 126 3.5 7.8 0.00 0.00 0.00 29 1004.2
20260504195004 79 169 3.5 7.0 0.00 0.00 0.00 29 1004.3
20260504193604 79 131 2.6 4.3 0.00 0.00 0.00 30 1004.4
20260504192204 78 110 3.5 5.2 0.00 0.00 0.00 29 1004.6
20260504190804 78 127 3.5 7.0 0.00 0.00 0.00 34 1004.7
20260504185404 77 111 4.3 8.7 0.00 0.00 0.00 35 1004.9
20260504184004 77 148 3.5 7.0 0.00 0.00 0.00 35 1005.0
20260504182604 76 232 2.6 6.1 0.00 0.00 0.00 38 1005.0
20260504181204 76 124 1.7 4.3 0.00 0.00 0.00 39 1005.0
20260504175804 75 128 0.9 2.6 0.00 0.00 0.00 44 1005.0
20260504174404 73 127 0.9 2.6 0.00 0.00 0.00 41 1005.1
20260504173004 73 247 1.7 3.5 0.00 0.00 0.00 42 1005.1
20260504171605 71 149 1.7 3.5 0.00 0.00 0.00 44 1005.2
20260504170205 70 133 1.7 2.6 0.00 0.00 0.00 41 1005.2